星链-36709(STARLINK-36709)

导读

STARLINK-36709(NORAD编号67969)是美国SpaceX公司星链(Starlink)星座中的一颗低轨通信卫星,隶属于Starlink全球卫星互联网项目,旨在为全球提供高速低延迟宽带互联网服务。该卫星采用星链标准平台设计,配备氩气离子推进系统,可实现轨道机动与寿命末期脱轨,搭载相控阵天线与空间激光链路,保障高带宽通信传输。它运行在近地轨道,作为星链星座的组成部分,服务全球个人、行业用户,助力缩小数字鸿沟,目前处于在轨运行状态,是SpaceX大规模星座部署中的一员。

Basic Information
目录编号:
67969
目录名称:
STARLINK-36709
国际标识:
2026-038J
轨道中心:
EARTH
卫星名称:
星链-36709
卫星全名:
星链-36709(STARLINK-36709)
卫星状态:
在轨 (已飞行191 天)
发射日期:
2026-02-25 UTC
国别 :
美国 (US)
星等 :
--
Orbit Information
数据来源 国际轨道数据 AOE轨道数据
星历时间 2026-09-04T00:04:44+0800
12小时前
查看轨道信息
2026-09-03T02:00:00+0800
1天前
查看轨道信息
半长轴 6843.688km 6843.624km
偏心率 0.0001747 0.0000658
轨道倾角 97.285° 97.291°
近地点辐角 89.971° 129.886°
升交点赤经 255.242° 254.333°
平近点角 270.174° 195.115°
近地点 464.355km 465.036km
远地点 466.747km 465.938km
周期 93.906分钟 93.905分钟
每日圈数 15.334426 15.334642
Detailed Information
固有亮度:
5
最大亮度:
2.5
卫星平台:
Starlink V1.0
覆盖范围:
全球
运营商:
太空探索技术公司
运营商所在国:
美国
制造商(研发单位):
太空探索技术公司
制造商所在国:
美国
使用方式:
暂无
Satellite Introduction
Starlink 计划是 SpaceX 推出的全球卫星互联网项目,通过发射低轨道卫星,为全球尤其是偏远地区提供高速、低延迟的互联网服务。自 2019 年起,Starlink 已部署数千颗卫星,旨在缩小全球数字鸿沟,推动互联网普及。该项目还为军事、航空等行业提供通信支持,带来广泛经济效益。
2D Orbit Map
3D Orbit Map
Orbit Altitude Analysis Chart
Orbit Inclination Analysis Chart
Orbit Comprehensive Analysis Chart
View Comprehensive Chart
Conjunction Data List
Event ID Objects TCA Miss Dist (km) Collision Risk Probability Collision Risk Index (CRI) Action
CDM_260828-205405-468606-796922
OBJECT E (54686)
2026-08-28T
20:54:31+0000
0.316 km
远距离
4.768872E-4 高风险 0.89
CDM_260905-020906-788906-796921
2026-09-05T
02:09:53+0000
0.759 km
远距离
4.90573E-5 中风险 0.69
CDM_260905-003506-788906-796921
2026-09-05T
00:35:55+0000
1.111 km
极远距离
1.361245E-5 中风险 0.58
CDM_260905-073806-788906-796921
2026-09-05T
07:38:45+0000
1.203 km
极远距离
1.035757E-5 中风险 0.55
CDM_260905-060406-788906-796921
2026-09-05T
06:04:47+0000
1.221 km
极远距离
9.8437E-6 低风险 0.55
CDM_260903-141604-865006-796921
2026-09-03T
14:16:49+0000
2.682 km
极远距离
1.418306E-6 低风险 0.38
CDM_260903-130205-083406-796921
2026-09-03T
13:02:21+0000
2.923 km
极远距离
1.375985E-6 低风险 0.38
CDM_260905-034306-788906-796921
2026-09-05T
03:43:51+0000
2.574 km
极远距离
1.275532E-6 低风险 0.37
CDM_260904-230106-788906-796921
2026-09-04T
23:01:58+0000
2.879 km
极远距离
1.085053E-6 低风险 0.36
CDM_260905-043006-788906-796921
2026-09-05T
04:30:50+0000
2.959 km
极远距离
1.050592E-6 低风险 0.35